Wheeler AAF, HI

10:37 PM HST on May 26, 2017 (GMT -1000)
Wheeler Army Air Field

Weather History for PHHI - September, 2014

Change the Weather History Date:

Saturday, September 27, 2014

  Actual Average Record
Temperature  
Mean Temperature 78 °F -  
Max Temperature 84 °F 82 °F 89 °F (2002)
Min Temperature 71 °F 68 °F 64 °F (1996)
Cooling Degree Days 12    
Growing Degree Days 28 (Base 50)    
Moisture  
Dew Point 69 °F    
Average Humidity 81    
Maximum Humidity 94    
Minimum Humidity 57    
Precipitation  
Precipitation 0.05 in - - ()
Sea Level Pressure  
Sea Level Pressure 29.97 in    
Wind  
Wind Speed 4 mph (NNE)    
Max Wind Speed 15 mph    
Max Gust Speed 23 mph    
Visibility 10 miles    
Events Rain    
Averages and records for this station are not official NWS values.
T = Trace of Precipitation, MM = Missing Value Source: NWS Daily Summary

Daily Weather History Graph

Daily Weather History Graph

Search for Another Location

Airport or City:

Trip Planner

Search our weather history database for the weather conditions in past years. The results will help you decide how hot, cold, wet, or windy it might be!

Date:

Astronomy

Sep. 27, 2014 Rise Set
Actual Time 6:22 AM HST 6:23 PM HST
Civil Twilight 6:00 AM HST 6:45 PM HST
Nautical Twilight 5:34 AM HST 7:11 PM HST
Astronomical Twilight 5:08 AM HST 7:37 PM HST
Moon 9:23 AM HST 8:58 PM HST
Length of Visible Light 12h 45m
Length of Day
12h 01m
Waxing Crescent, 13% of the Moon is Illuminated
Sep 27
Waxing Crescent
Oct 1
First Quarter
Oct 8
Full
Oct 15
Last Quarter
Oct 23
New

Hourly Weather History & Observations

Time (HST) Temp. Heat Index Dew Point Humidity Pressure Visibility Wind Dir Wind Speed Gust Speed Precip Events Conditions
12:58 AM 73.4 °F - 69.3 °F 87% 29.96 in 10.0 mi NE 4.6 mph - N/A   Scattered Clouds
1:58 AM 72.5 °F - 69.4 °F 90% 29.95 in 10.0 mi NW 2.3 mph - N/A   Scattered Clouds
2:43 AM 73.4 °F - 69.8 °F 88% 29.97 in 10.0 mi Variable 1.2 mph - N/A   Mostly Cloudy
2:48 AM 73.4 °F - 69.8 °F 88% 29.97 in 10.0 mi South 3.5 mph - N/A   Mostly Cloudy
2:58 AM 73.2 °F - 69.3 °F 87% 29.93 in 10.0 mi SSE 3.5 mph - N/A   Mostly Cloudy
3:08 AM 73.4 °F - 69.8 °F 88% 29.96 in 10.0 mi SE 4.6 mph - N/A   Mostly Cloudy
3:13 AM 73.4 °F - 69.8 °F 88% 29.96 in 10.0 mi SE 2.3 mph - N/A   Mostly Cloudy
3:15 AM 73.4 °F - 69.8 °F 88% 29.96 in 9.0 mi SE 2.3 mph - N/A   Light Drizzle
3:25 AM 73.4 °F - 69.8 °F 88% 29.96 in 10.0 mi SW 2.3 mph - N/A   Mostly Cloudy
3:30 AM 73.4 °F - 69.8 °F 88% 29.96 in 10.0 mi SSW 2.3 mph - N/A   Mostly Cloudy
3:35 AM 73.4 °F - 69.8 °F 88% 29.96 in 10.0 mi SW 2.3 mph - N/A   Overcast
3:50 AM 73.4 °F - 69.8 °F 88% 29.96 in 10.0 mi North 1.2 mph - N/A   Overcast
3:55 AM 73.4 °F - 69.8 °F 88% 29.95 in 10.0 mi Variable 1.2 mph - N/A   Overcast
3:58 AM 73.2 °F - 70.3 °F 91% 29.92 in 10.0 mi Variable 1.2 mph - 0.00 in   Overcast
4:03 AM 73.4 °F - 69.8 °F 88% 29.95 in 10.0 mi ENE 3.5 mph - N/A   Overcast
4:08 AM 75.2 °F - 71.6 °F 89% 29.95 in 10.0 mi East 2.3 mph - N/A   Overcast
4:23 AM 73.4 °F - 69.8 °F 88% 29.96 in 10.0 mi Calm Calm - N/A   Overcast
4:33 AM 73.4 °F - 69.8 °F 88% 29.96 in 10.0 mi WNW 2.3 mph - N/A   Mostly Cloudy
4:53 AM 73.4 °F - 69.8 °F 88% 29.96 in 10.0 mi NW 2.3 mph - N/A   Light Drizzle
4:58 AM 73.4 °F - 69.8 °F 88% 29.93 in 9.0 mi WNW 2.3 mph - 0.00 in   Light Drizzle
5:08 AM 73.4 °F - 69.8 °F 88% 29.96 in 10.0 mi NW 2.3 mph - N/A   Light Drizzle
5:13 AM 73.4 °F - 69.8 °F 88% 29.96 in 9.0 mi WNW 2.3 mph - N/A   Light Drizzle
5:41 AM 73.4 °F - 69.8 °F 88% 29.97 in 10.0 mi West 3.5 mph - N/A   Overcast
5:50 AM 73.4 °F - 69.8 °F 88% 29.98 in 9.0 mi Calm Calm - N/A   Light Drizzle
5:58 AM 72.9 °F - 70.2 °F 91% 29.95 in 5.0 mi Calm Calm - 0.01 in Rain Light Rain
6:03 AM 73.4 °F - 69.8 °F 88% 29.98 in 5.0 mi WNW 2.3 mph - N/A Rain Light Rain
6:08 AM 73.4 °F - 69.8 °F 88% 29.98 in 8.0 mi West 2.3 mph - N/A   Light Drizzle
6:13 AM 73.4 °F - 69.8 °F 88% 29.98 in 9.0 mi NNW 3.5 mph - N/A   Light Drizzle
6:31 AM 73.4 °F - 69.8 °F 88% 29.98 in 10.0 mi WNW 4.6 mph - N/A   Mostly Cloudy
6:36 AM 73.4 °F - 69.8 °F 88% 29.98 in 10.0 mi WNW 5.8 mph - N/A   Overcast
6:58 AM 73.8 °F - 71.1 °F 91% 29.96 in 10.0 mi NW 3.5 mph - 0.01 in   Overcast
7:21 AM 73.4 °F - 71.6 °F 94% 30.00 in 10.0 mi WNW 3.5 mph - N/A Rain Light Rain
7:57 AM 73.4 °F - 71.6 °F 94% 30.01 in 10.0 mi West 3.5 mph - N/A   Overcast
7:58 AM 74.1 °F - 71.6 °F 92% 29.98 in 10.0 mi West 3.5 mph - 0.02 in   Overcast
8:03 AM 73.4 °F - 71.6 °F 94% 30.01 in 10.0 mi WNW 3.5 mph - N/A   Overcast
8:08 AM 73.4 °F - 71.6 °F 94% 30.01 in 10.0 mi Variable 3.5 mph - N/A   Overcast
8:12 AM 75.2 °F - 71.6 °F 89% 30.01 in 10.0 mi Calm Calm - N/A   Light Drizzle
8:23 AM 75.2 °F - 71.6 °F 89% 30.01 in 10.0 mi WNW 2.3 mph - N/A   Overcast
8:53 AM 77.0 °F - 69.8 °F 78% 30.02 in 10.0 mi ENE 8.1 mph - N/A   Overcast
8:58 AM 76.5 °F - 69.1 °F 78% 29.99 in 10.0 mi ENE 8.1 mph - 0.01 in   Overcast
9:58 AM 80.4 °F 83.4 °F 68.9 °F 68% 29.99 in 10.0 mi East 8.1 mph - N/A   Mostly Cloudy
10:58 AM 82.6 °F 85.1 °F 66.9 °F 59% 29.98 in 10.0 mi ESE 10.4 mph 19.6 mph N/A   Partly Cloudy
11:38 AM 84.2 °F 87.3 °F 68.0 °F 58% 30.00 in 10.0 mi East 15.0 mph - N/A   Mostly Cloudy
11:58 AM 84.2 °F 87.1 °F 67.6 °F 57% 29.96 in 10.0 mi East 15.0 mph - N/A   Scattered Clouds
12:58 PM 84.0 °F 86.8 °F 67.5 °F 57% 29.95 in 10.0 mi ENE 10.4 mph 23.0 mph N/A   Overcast
1:58 PM 84.0 °F 87.3 °F 68.4 °F 59% 29.93 in 10.0 mi ENE 13.8 mph - N/A   Overcast
2:17 PM 84.2 °F 87.3 °F 68.0 °F 58% 29.95 in 10.0 mi East 12.7 mph - N/A   Overcast
2:58 PM 83.5 °F 87.2 °F 69.1 °F 62% 29.91 in 10.0 mi NE 13.8 mph - N/A   Overcast
3:58 PM 82.9 °F 86.7 °F 69.8 °F 64% 29.91 in 10.0 mi Variable 5.8 mph - N/A   Mostly Cloudy
4:13 PM 82.4 °F 86.3 °F 69.8 °F 66% 29.94 in 10.0 mi East 9.2 mph 17.3 mph N/A   Mostly Cloudy
4:18 PM 82.4 °F 86.3 °F 69.8 °F 66% 29.94 in 10.0 mi ENE 9.2 mph 17.3 mph N/A   Mostly Cloudy
4:48 PM 82.4 °F 86.3 °F 69.8 °F 66% 29.95 in 10.0 mi ENE 12.7 mph - N/A   Mostly Cloudy
4:58 PM 81.7 °F 85.4 °F 70.3 °F 68% 29.92 in 10.0 mi ENE 9.2 mph - N/A   Mostly Cloudy
5:58 PM 79.0 °F - 68.4 °F 70% 29.94 in 10.0 mi ENE 5.8 mph - N/A   Clear
6:33 PM 78.8 °F - 68.0 °F 69% 29.97 in 10.0 mi NE 8.1 mph - N/A   Mostly Cloudy
6:48 PM 77.0 °F - 68.0 °F 74% 29.98 in 10.0 mi ENE 5.8 mph - N/A   Scattered Clouds
6:58 PM 77.5 °F - 68.4 °F 73% 29.96 in 10.0 mi Variable 3.5 mph - N/A   Partly Cloudy
7:58 PM 76.8 °F - 67.6 °F 73% 29.97 in 10.0 mi NE 3.5 mph - N/A   Clear
8:58 PM 76.3 °F - 67.3 °F 74% 29.97 in 10.0 mi ENE 5.8 mph - N/A   Partly Cloudy
9:58 PM 73.2 °F - 66.9 °F 81% 29.98 in 10.0 mi Calm Calm - N/A   Partly Cloudy
10:58 PM 71.6 °F - 66.6 °F 84% 29.97 in 10.0 mi WNW 3.5 mph - N/A   Clear
11:58 PM 72.0 °F - 65.8 °F 81% 29.96 in 10.0 mi Calm Calm - N/A   Clear